Regional Weather Roundup
Issued by NWS

Home | Current Version | Previous Version | Text Only | Print | Product List | Glossary On
Versions: 1 2 3 4 5 6 7 8 9 10 11 12 13 14 15 16 17 18 19 20 21 22 23 24 25 26 27 28 29 30 31 32 33 34 35 36 37 38 39 40 41 42 43 44 45 46 47 48 49 50
000
ASUS45 KPSR 010010
RWRAZ

ARIZONA REGIONAL HOURLY WEATHER ROUNDUP
NATIONAL WEATHER SERVICE PHOENIX AZ
500 PM MST SAT JAN 31 2015

NOTE: FAIR INDICATES FEW OR NO CLOUDS BELOW 12,000 FEET WITH NO
SIGNIFICANT WEATHER AND/OR OBSTRUCTIONS TO VISIBILITY.

AZZ001>003-036-010100-
NORTHWEST ARIZONA

CITY           SKY/WX    TMP DP  RH WIND       PRES   REMARKS
BULLHEAD CITY  MOSUNNY   66  41  39 N21G30    29.88R
KINGMAN        PTSUNNY   55  43  63 N20       29.92R
6HR MIN TEMP:  48; 6HR MAX TEMP:  58;

$$

AZZ004>008-015-016-018-010100-
NORTH CENTRAL ARIZONA

CITY           SKY/WX    TMP DP  RH WIND       PRES   REMARKS
GRAND CANYON   PTCLDY    44  32  62 N9        29.95S
6HR MIN TEMP:  42; 6HR MAX TEMP:  48;

PRESCOTT       MOCLDY    50  37  61 CALM      29.91R
6HR MIN TEMP:  47; 6HR MAX TEMP:  54; 6HR PCP:  0.01;

FLAGSTAFF      MOCLDY    41  35  79 E6        29.95R
6HR MIN TEMP:  40; 6HR MAX TEMP:  46;

PAYSON         CLOUDY    46  41  81 CALM      29.93R
$$

AZZ009>014-017-010100-
NORTHEAST ARIZONA

CITY           SKY/WX    TMP DP  RH WIND       PRES   REMARKS
WINSLOW        PTCLDY    48  40  73 NW9       29.93R
6HR MIN TEMP:  43; 6HR MAX TEMP:  51;

SAINT JOHNS    CLOUDY    47  39  74 NW13      29.89R
6HR MIN TEMP:  45; 6HR MAX TEMP:  49; 6HR PCP: TRACE;

WINDOW ROCK    CLOUDY    41  34  76 NW6       29.92R
6HR MIN TEMP:  36; 6HR MAX TEMP:  45;

SHOW LOW       CLOUDY    39  36  87 N12       29.94R WCI  32
$$

AZZ023-010100-
GREATER PHOENIX AREA

CITY           SKY/WX    TMP DP  RH WIND       PRES   REMARKS
PHOENIX        CLOUDY    59  52  77 S8        29.85R
6HR MIN TEMP:  56; 6HR MAX TEMP:  60; 6HR PCP:  0.07;

BUCKEYE          N/A     57  57 100 SE7       29.87R
GLENDALE       PTSUNNY   61  54  77 SE7       29.87R
LUKE AFB       PTSUNNY   61  52  72 SW6       29.85R
DEER VALLEY    CLOUDY    59  51  75 SE5       29.85R
6HR MIN TEMP:  57; 6HR MAX TEMP:  60; 6HR PCP: TRACE;

SCOTTSDALE     CLOUDY    59  51  75 S5        29.87R
6HR MIN TEMP:  58; 6HR MAX TEMP:  60; 6HR PCP: TRACE;

MESA-FALCON    PTSUNNY   55  54  94 SW6       29.86R
MESA-GATEWAY   PTSUNNY   55  52  88 SE3       29.88S
CHANDLER       PTSUNNY   57  54  88 SE8       29.87R
$$

AZZ027-028-010100-
SOUTHWEST MARICOPA COUNTY AND PINAL COUNTY

CITY           SKY/WX    TMP DP  RH WIND       PRES   REMARKS
CASA GRANDE    CLOUDY    55  48  76 CALM      29.87S
6HR MIN TEMP:  54; 6HR MAX TEMP:  55; 6HR PCP:  0.26;

GILA BEND      MOCLDY    57  55  92 CALM      29.85S
6HR MIN TEMP:  55; 6HR MAX TEMP:  58; 6HR PCP:  0.45;

$$

AZZ503-504-507>509-010100-
SOUTHEAST ARIZONA

CITY           SKY/WX    TMP DP  RH WIND       PRES   REMARKS
TUCSON         CLOUDY    53  49  86 E3        29.89R
6HR MIN TEMP:  52; 6HR MAX TEMP:  56; 6HR PCP:  0.31;

DAVIS-MONTHAN  CLOUDY    52  50  94 E6        29.86S
6HR MIN TEMP:  51; 6HR MAX TEMP:  54; 6HR PCP:  0.15;

RYAN FIELD       N/A     55  52  88 SE5       29.88S
NOGALES        CLOUDY    53  41  63 S10       29.88R
6HR MIN TEMP:  51; 6HR MAX TEMP:  55; 6HR PCP:  0.02;

SIERRA VISTA   MOCLDY    51  42  71 W13G26    29.89R
6HR MIN TEMP:  47; 6HR MAX TEMP:  56; 6HR PCP:  0.01;

DOUGLAS        PTCLDY    55  43  63 S14       29.87R
6HR MIN TEMP:  50; 6HR MAX TEMP:  56; 6HR PCP:  0.02;

SAFFORD        LGT RAIN  51  45  79 CALM      29.87R
6HR MIN TEMP:  50; 6HR MAX TEMP:  54; 6HR PCP:  0.03;

$$

AZZ020-021-025-026-031-010100-
SOUTHWEST ARIZONA

CITY           SKY/WX    TMP DP  RH WIND       PRES   REMARKS
YUMA           CLOUDY    68  47  46 NE13      29.84S
6HR MIN TEMP:  63; 6HR MAX TEMP:  70;

$$

CAZ031-033-041-043-047-048-061-010100-
SOUTHERN CALIFORNIA

CITY           SKY/WX    TMP DP  RH WIND       PRES   REMARKS
DOWNTOWN L.A.  SUNNY     67  52  58 VRB6      29.89R
6HR MIN TEMP:  62; 6HR MAX TEMP:  71;

L.A. AIRPORT   MOSUNNY   62  56  80 W14       29.91R
6HR MIN TEMP:  62; 6HR MAX TEMP:  66;

SAN DIEGO      PTSUNNY   64  52  64 NW9       29.90R
6HR MIN TEMP:  61; 6HR MAX TEMP:  67;

BURBANK        MOSUNNY   71  38  29 E12G21    29.88R
6HR MIN TEMP:  62; 6HR MAX TEMP:  72; 6HR PCP:  0.01;

ONTARIO        MOSUNNY   68  40  35 VRB3      29.89R
6HR MIN TEMP:  58; 6HR MAX TEMP:  69;

RIVERSIDE      MOSUNNY   69  40  34 NE9       29.89R
6HR MIN TEMP:  57; 6HR MAX TEMP:  70;

PALM SPRINGS   PTSUNNY   71  41  33 N7        29.90S
6HR MIN TEMP:  63; 6HR MAX TEMP:  72;

EL CENTRO NAS  MOSUNNY   71  43  36 N15       29.85S
6HR MIN TEMP:  65; 6HR MAX TEMP:  73;

IMPERIAL       MOSUNNY   71  44  37 NW12      29.84S
6HR MIN TEMP:  64; 6HR MAX TEMP:  72;

BLYTHE         MOSUNNY   68  49  50 NW9       29.85R
6HR MIN TEMP:  61; 6HR MAX TEMP:  69;

NEEDLES        SUNNY     69  43  38 N16       29.87R
6HR MIN TEMP:  60; 6HR MAX TEMP:  69;

$$

NVZ020-UTZ003-010100-
SOUTHERN NEVADA-UTAH

CITY           SKY/WX    TMP DP  RH WIND       PRES   REMARKS
LAS VEGAS      MOSUNNY   63  37  38 NE7       29.90S
6HR MIN TEMP:  57; 6HR MAX TEMP:  65;

SALT LAKE CITY CLEAR     44  29  55 W12       30.07R
6HR MIN TEMP:  40; 6HR MAX TEMP:  47;

$$

NMZ009-TXZ055-010100-
NEW MEXICO-WEST TEXAS

CITY           SKY/WX    TMP DP  RH WIND       PRES   REMARKS
ALBUQUERQUE    MOCLDY    41  35  79 NW5       29.89S
6HR MIN TEMP:  36; 6HR MAX TEMP:  42;

EL PASO        CLOUDY    56  45  66 W10       29.87R
6HR MIN TEMP:  48; 6HR MAX TEMP:  58; 6HR PCP: TRACE;

$$


........................KEY........................
SKY/WX - SKY CONDITION/WEATHER
TMP    - TEMPERATURE IN FAHRENHEIT
DP     - DEW POINT IN FAHRENHEIT
RH     - RELATIVE HUMIDITY IN PERCENT
WIND   - DIRECTION AND SPEED IN MILES PER HOUR (MPH)
VRB    - VARIABLE WIND DIRECTION
PRES   - MEAN SEA LEVEL PRESSURE IN INCHES OF MERCURY
         F - FALLING PRESSURE   R - RISING PRESSURE
         S - STEADY PRESSURE
VSB    - VISIBILITY IN MILES
HX     - HEAT INDEX IN FAHRENHEIT
WCI    - WIND CHILL INDEX IN FAHRENHEIT
TC     - TEMPERATURE IN CELSIUS WHICH IS ALSO KNOWN AS
         TEMPERATURE IN CENTIGRADE
AFB    - AIR FORCE BASE
         LUKE AFB IS LUKE AIR FORCE BASE
         DAVIS-MONTHAN IS DAVIS-MONTHAN AIR FORCE BASE
NAS    - NAVAL AIR STATION
         EL CENTRO NAS IS EL CENTRO NAVAL AIR STATION
N/A    - NOT AVAILABLE


USA.gov is the U.S. government's official web portal to all federal, state and local government web resources and services.